Tracking 23611 objects as of 18-Sep-2021
HD Live streaming from Space Station
objects crossing your sky now
Track INSPIRATION-4

GARUDA 1

Track GARUDA 1 now!
GARUDA 1 is classified as:


NORAD ID: 26089
Int'l Code: 2000-011A
Perigee: 35,880.6 km
Apogee: 35,908.1 km
Inclination: 5.3 °
Period: 1,441.2 minutes
Semi major axis: 42265 km
RCS: 16.0243 m2 (large)
Launch date: February 12, 2000
Source: Indonesia (INDO)
Launch site: TYURATAM MISSILE AND SPACE COMPLEX (TTMTR)

L-band; mobile telephone communications.
aabbcc
Your satellite tracking list
Your tracking list is empty




NASA's NSSDC Master Catalog

Two Line Element Set (TLE):
1 26089U 00011A   21260.76092115  .00000098  00000-0  00000-0 0  9996
2 26089   5.3477  85.2655 0003253  44.6134 347.5515  0.99913972 24341
Source of the keplerian elements: AFSPC